Regional Weather Roundup
Issued by NWS Cleveland, OH

Home | Current Version | Previous Version | Text Only | Print | Product List | Glossary Off
Versions: 1 2 3 4 5 6 7 8 9 10 11 12 13 14 15 16 17 18 19 20 21 22 23 24 25 26 27 28 29 30 31 32 33 34 35 36 37 38 39 40 41 42 43 44 45 46 47 48 49 50

000
ASUS41 KCLE 251610
RWRCLE
OHIO REGIONAL WEATHER ROUNDUP
NATIONAL WEATHER SERVICE CLEVELAND, OH
1200 PM EDT SAT MAR 25 2017

NOTE: "FAIR" INDICATES FEW OR NO CLOUDS BELOW 12,000 FEET WITH NO
SIGNIFICANT WEATHER AND/OR OBSTRUCTIONS TO VISIBILITY.

OHZ001>008-015>018-024>027-034-035-043-044-251700-
   NORTHWEST OHIO

CITY           SKY/WX    TMP DP  RH WIND       PRES   REMARKS
DEFIANCE       CLOUDY    54  44  69 NE13      30.13S
FINDLAY        PTSUNNY   60  47  61 NE9       30.12S
TOLEDO EXPRESS CLOUDY    47  41  80 E16       30.17R
TOLEDO EXEC    CLOUDY    45  41  86 NE15      30.20R FOG
LIMA           PTSUNNY   69  52  54 SW16G26   30.11S
$$

OHZ009>014-019>023-028>033-038-089-251700-
   NORTHEAST OHIO

CITY           SKY/WX    TMP DP  RH WIND       PRES   REMARKS
CLE-HOPKINS    CLOUDY    47  39  74 NE10      30.22R
CLE-LAKEFRONT  CLOUDY    40  37  89 NE23      30.19R FOG
CUY CO. ARPT   CLOUDY    50  43  76 N10       30.19R FOG
LORAIN-ELYRIA  CLOUDY    48  40  73 NE9       30.18R
ASHTABULA      CLOUDY    46  40  79 N12G20    30.22R
AKRON-CANTON   CLOUDY    65  50  58 SW10      30.16S
WOOSTER        CLOUDY    65  51  60 W12       30.16S
MANSFIELD      CLOUDY    66  51  58 SW16      30.15S
YOUNGSTOWN     CLOUDY    65  50  58 W12G20    30.16R
$$

OHZ042-051>053-060>062-070>072-077>081-251700-
  SOUTHWEST OHIO

CITY           SKY/WX    TMP DP  RH WIND       PRES   REMARKS
CINC-COVINGTON PTSUNNY   69  51  52 S15G24    30.12S
CINC-LUNKEN    PTSUNNY   70  53  54 S15       30.12F
HAMILTON       CLOUDY    70  51  51 VRB3      30.13F
DAYTON         CLOUDY    66  49  54 S16G24    30.12S
WRIGHT-PAT AFB CLOUDY    68  50  51 SW20      30.12S
DAYTON GENERAL CLOUDY    67  50  54 S13       30.12F
WILMINGTON     CLOUDY    68  51  54 SW16      30.13F
$$

OHZ036-037-039>041-045>050-054>059-063>069-073>076-082>088-251700-
  CENTRAL AND SOUTHEAST OHIO

CITY           SKY/WX    TMP DP  RH WIND       PRES   REMARKS
COLUMBUS       PTSUNNY   70  49  47 SW14      30.15F
OSU AIRPORT    PTSUNNY   72  52  49 SW17G26   30.14F
BOLTON FIELD   SUNNY     70  52  52 SW17G25   30.15F
RICKENBACK AFB MOSUNNY   69  50  50 SW14G24   30.15S
NEWARK         PTSUNNY   71  51  49 SW10      30.15F
MARION         CLOUDY    69  50  50 SW15G25   30.14F
LANCASTER      PTSUNNY   72  51  47 SW10      30.16S
ZANESVILLE     CLOUDY    70  49  47 W13       30.17S
NEW PHILLY     NOT AVBL
$$



USA.gov is the U.S. government's official web portal to all federal, state and local government web resources and services.